Total_Precipitation_Accumulation
0.08 0.05 0.11 0.09 0.07 0.08 0.09 0.11 0.14 0.14 0.14 0.15 0.17 0.16 0.13 0.10 0.08 0.09 0.12 0.14 0.13 0.14 0.16 0.19 0.23 0.24 0.27 0.27 0.26 0.24 0.21 0.20 0.26 0.26 0.25 0.27 0.32 0.46 0.55 0.56 0.63 0.46 0.36
0.06 0.04 0.10 0.09 0.07 0.08 0.10 0.12 0.13 0.13 0.12 0.14 0.16 0.16 0.12 0.10 0.09 0.08 0.11 0.13 0.12 0.11 0.11 0.15 0.16 0.17 0.21 0.22 0.17 0.16 0.16 0.17 0.21 0.25 0.25 0.24 0.30 0.46 0.58 0.56 0.69 0.40 0.31
0.05 0.04 0.08 0.09 0.08 0.08 0.09 0.12 0.15 0.15 0.12 0.12 0.13 0.13 0.11 0.11 0.11 0.10 0.11 0.16 0.18 0.16 0.13 0.12 0.12 0.12 0.14 0.14 0.11 0.10 0.13 0.16 0.22 0.31 0.43 0.40 0.24 0.44 0.59 0.58 0.45 0.26 0.26
0.05 0.06 0.06 0.07 0.07 0.08 0.09 0.10 0.13 0.15 0.16 0.16 0.17 0.14 0.13 0.13 0.13 0.12 0.12 0.14 0.17 0.15 0.13 0.09 0.09 0.09 0.09 0.07 0.07 0.09 0.14 0.20 0.26 0.47 0.77 0.68 0.33 0.40 0.51 0.48 0.37 0.27 0.26
0.09 0.07 0.09 0.08 0.07 0.08 0.09 0.10 0.12 0.15 0.17 0.19 0.18 0.16 0.16 0.14 0.14 0.13 0.12 0.14 0.14 0.11 0.10 0.09 0.10 0.09 0.07 0.05 0.06 0.09 0.13 0.20 0.28 0.54 0.68 0.67 0.59 0.44 0.41 0.42 0.39 0.39 0.33
0.11 0.09 0.12 0.13 0.11 0.10 0.10 0.12 0.14 0.15 0.16 0.17 0.15 0.14 0.14 0.14 0.15 0.14 0.13 0.15 0.17 0.17 0.13 0.13 0.13 0.12 0.09 0.06 0.06 0.09 0.13 0.21 0.32 0.40 0.41 0.46 0.50 0.46 0.45 0.51 0.52 0.50 0.43
0.16 0.16 0.20 0.21 0.18 0.14 0.12 0.13 0.14 0.14 0.16 0.16 0.14 0.13 0.13 0.14 0.15 0.15 0.14 0.14 0.14 0.17 0.17 0.17 0.16 0.12 0.12 0.11 0.09 0.10 0.15 0.26 0.36 0.37 0.31 0.52 0.53 0.35 0.49 0.67 0.79 0.72 0.58
0.23 0.23 0.25 0.24 0.21 0.19 0.16 0.15 0.15 0.14 0.14 0.15 0.15 0.13 0.12 0.12 0.13 0.15 0.16 0.14 0.12 0.12 0.14 0.16 0.19 0.15 0.12 0.16 0.15 0.13 0.17 0.23 0.27 0.30 0.28 0.41 0.38 0.34 0.51 0.75 0.89 0.86 0.73
0.39 0.31 0.32 0.29 0.23 0.20 0.19 0.18 0.17 0.17 0.16 0.15 0.15 0.16 0.14 0.12 0.12 0.14 0.16 0.16 0.14 0.12 0.12 0.14 0.14 0.14 0.12 0.16 0.20 0.21 0.22 0.30 0.36 0.39 0.33 0.47 0.42 0.49 0.69 0.87 0.99 0.96 0.89
0.57 0.44 0.41 0.39 0.34 0.28 0.26 0.25 0.25 0.22 0.20 0.19 0.18 0.20 0.22 0.21 0.19 0.22 0.21 0.20 0.21 0.21 0.18 0.16 0.18 0.17 0.18 0.17 0.19 0.29 0.38 0.36 0.24 0.31 0.50 0.45 0.42 0.68 0.96 1.06 1.16 1.17 1.11
0.76 0.64 0.54 0.52 0.48 0.42 0.39 0.36 0.35 0.34 0.31 0.29 0.30 0.30 0.31 0.33 0.38 0.42 0.36 0.37 0.37 0.38 0.40 0.40 0.41 0.40 0.37 0.28 0.30 0.47 0.50 0.29 0.33 0.48 0.60 0.45 0.53 0.90 1.20 1.28 1.30 1.33 1.30
0.88 0.77 0.75 0.72 0.61 0.51 0.43 0.48 0.54 0.51 0.51 0.49 0.58 0.56 0.57 0.64 0.60 0.48 0.54 0.66 0.81 0.88 0.88 0.96 1.07 0.87 0.68 0.68 1.13 1.13 0.45 0.31 0.47 0.58 0.68 0.58 0.78 1.20 1.46 1.56 1.53 1.46 1.42
1.16 0.98 0.93 0.86 0.74 0.66 0.70 0.69 0.72 0.72 0.78 0.78 0.86 0.92 0.94 0.85 0.72 0.68 0.80 1.00 1.19 1.24 1.23 1.55 1.61 1.18 1.25 1.48 1.60 1.33 0.66 0.56 0.59 0.66 0.92 0.98 1.05 1.51 1.94 1.96 1.90 1.74 1.60
1.48 1.27 1.13 1.05 1.01 0.97 0.95 0.93 0.89 0.93 1.00 1.06 1.17 1.21 1.32 1.35 1.23 1.20 1.27 1.36 1.53 1.62 1.84 1.97 2.09 1.83 1.82 1.71 1.56 1.37 1.15 1.13 1.01 1.23 1.62 1.47 1.27 1.55 2.24 2.40 2.28 2.08 1.75
1.59 1.40 1.39 1.24 1.18 1.20 1.27 1.34 1.28 1.34 1.36 1.37 1.49 1.57 1.65 1.80 1.77 1.76 1.67 1.70 1.67 1.85 2.03 2.30 2.23 2.47 2.42 2.15 1.79 1.59 1.57 1.47 1.36 1.54 1.82 1.91 1.75 1.79 2.46 2.88 2.76 2.47 2.09
1.61 1.50 1.49 1.44 1.49 1.61 1.62 1.65 1.76 1.81 1.79 1.78 1.79 1.84 1.90 2.08 2.27 2.21 2.00 1.98 1.88 1.95 2.22 2.47 2.49 2.87 2.71 2.56 2.05 1.88 1.71 1.56 1.50 1.66 1.85 2.09 2.02 1.99 2.31 2.74 2.97 2.90 2.56
1.44 1.51 1.71 1.87 1.97 2.10 2.19 2.24 2.22 2.25 2.14 2.12 2.28 2.37 2.40 2.39 2.42 2.30 2.15 2.07 2.19 2.32 2.49 2.53 2.62 2.93 2.65 2.54 2.30 2.12 1.90 1.69 1.56 1.73 1.94 2.24 2.05 1.97 2.22 2.56 2.91 2.88 2.71
1.40 1.53 1.78 2.03 2.30 2.49 2.56 2.68 2.68 2.58 2.45 2.52 2.56 2.60 2.61 2.52 2.43 2.49 2.25 2.08 2.35 2.50 2.66 2.80 2.77 2.82 2.80 2.73 2.55 2.19 1.98 1.84 1.63 1.69 1.77 1.93 2.04 1.68 1.98 2.45 2.62 2.53 2.54
1.69 1.96 2.27 2.39 2.41 2.50 2.70 2.84 2.69 2.59 2.45 2.42 2.39 2.40 2.37 2.35 2.37 2.62 2.41 2.39 2.57 2.76 2.67 2.50 2.82 2.93 2.84 2.80 2.51 2.30 1.90 1.73 1.65 1.57 1.61 1.69 1.85 1.80 1.73 1.90 2.30 2.24 2.43
2.09 2.39 2.47 2.54 2.77 3.08 3.33 3.23 2.95 2.59 2.37 2.26 2.16 2.10 2.13 2.26 2.34 2.59 2.38 2.44 2.66 2.81 2.84 2.84 2.89 2.87 2.74 2.79 2.48 2.22 1.87 1.53 1.46 1.42 1.35 1.46 1.50 1.34 1.38 1.51 1.82 1.63 1.82
2.19 2.36 2.54 2.87 3.23 3.35 3.32 3.29 3.20 2.86 2.55 2.21 1.98 1.97 2.05 2.08 2.24 2.52 2.25 2.55 2.70 2.70 2.80 2.84 2.99 2.85 2.70 2.87 2.72 2.20 1.71 1.40 1.23 1.11 1.15 1.23 1.19 1.25 1.43 1.67 1.90 1.89 1.69
2.17 2.41 2.70 2.99 3.31 3.22 3.36 3.56 3.45 3.17 2.58 2.22 2.02 1.98 2.03 2.08 2.15 2.31 2.57 2.63 2.70 2.72 2.74 2.72 2.76 2.57 2.38 2.72 2.71 2.48 1.88 1.50 1.18 1.01 1.14 1.10 1.17 1.41 1.42 1.46 1.71 1.97 1.84
2.31 2.68 2.92 3.09 3.16 3.14 3.26 3.36 3.07 2.83 2.40 2.27 2.26 2.15 2.08 2.20 2.25 2.39 2.55 2.64 2.57 2.48 2.51 2.61 2.53 2.39 2.22 2.35 2.61 2.62 2.11 1.62 1.29 1.06 1.06 1.10 1.36 1.49 1.37 1.35 1.34 1.41 1.50
2.35 2.71 3.04 3.02 3.00 2.95 3.05 3.12 2.96 2.69 2.41 2.31 2.32 2.11 1.96 1.93 1.99 2.11 2.19 2.34 2.41 2.40 2.36 2.33 2.31 2.32 2.23 2.11 2.35 2.43 2.27 2.00 1.72 1.25 1.01 1.05 1.27 1.36 1.29 1.18 1.21 1.32 1.42
2.05 2.35 2.63 2.82 2.86 2.79 2.75 2.72 2.69 2.50 2.25 2.10 2.04 1.92 1.87 1.90 1.81 1.82 1.93 2.11 2.17 2.10 2.08 2.23 2.39 2.36 2.20 2.05 2.14 2.25 2.39 2.32 2.00 1.64 1.21 1.11 1.12 1.06 1.16 1.17 1.17 1.23 1.40
1.86 2.11 2.29 2.42 2.47 2.42 2.34 2.30 2.33 2.26 2.20 2.05 1.90 1.91 1.94 1.87 1.75 1.69 1.72 1.83 1.91 1.90 1.87 1.91 2.02 2.05 2.03 2.11 2.13 2.14 2.24 2.23 2.12 2.00 1.59 1.35 1.20 0.93 0.98 1.05 1.12 1.16 1.26